Date String (YYYY-MM-DD hh:mm:ss) UTC,Instrument flags,Ambient pressure (hPa),Sample flow (lpm),Bypass flow (lpm),Sample temperature (°C),Ambient temperature (°C),ASC tube jacket temperature (°C),LED temperature (°C),Box temperature (°C),Sample RH (%),Span deviation,Mass concentration (μg/m³),Mass concentration (μg/m³),Mass concentration (μg/m³)
DateTimeUTC,F1_M11,P_M11,Q1_M11,Q2_M11,T1_M11,T2_M11,T3_M11,T4_M11,T5_M11,U1_M11,ZSPAN_M11,X2_M11,X0_M11,X1_M11
2023-03-03 03:00:00,,0815.8,5.01,0.00,22.3,22.2,00.0,30.9,24.3,14.2,-001.8,0007.29,0012.81,0006.74
2023-03-03 03:01:00,,0815.8,4.99,0.00,22.4,23.0,00.0,30.9,24.5,14.1,-001.9,0007.33,0012.96,0006.80
2023-03-03 03:02:00,,0815.8,4.99,0.00,22.5,22.8,00.0,31.0,24.5,14.1,-001.7,0007.38,0013.00,0006.84
2023-03-03 03:03:00,,0815.8,5.00,0.00,22.5,22.4,00.0,31.0,24.5,14.1,-001.6,0007.44,0013.20,0006.88
2023-03-03 03:04:00,,0815.8,4.99,0.00,22.5,22.1,00.0,31.1,24.4,14.1,-001.9,0007.50,0013.38,0006.89
2023-03-03 03:05:00,,0815.8,5.01,0.00,22.5,21.9,00.0,31.1,24.4,14.1,-001.9,0007.50,0013.45,0006.91
2023-03-03 03:06:00,,0815.8,5.01,0.00,22.5,21.6,00.0,31.1,24.4,14.1,-002.0,0007.53,0013.35,0006.91
2023-03-03 03:07:00,,0815.8,5.00,0.00,22.5,21.5,00.0,31.1,24.3,14.1,-001.9,0007.53,0013.76,0006.92
2023-03-03 03:08:00,,0815.7,5.00,0.00,22.5,21.4,00.0,31.2,24.3,14.0,-002.0,0007.56,0014.74,0006.93
2023-03-03 03:09:00,,0815.6,4.99,0.00,22.5,21.3,00.0,31.2,24.3,14.0,-001.8,0007.53,0014.58,0006.94
2023-03-03 03:10:00,,0815.7,5.01,0.00,22.5,21.2,00.0,31.2,24.3,13.9,-001.9,0007.52,0014.10,0006.95
2023-03-03 03:11:00,,0815.7,5.02,0.00,22.5,21.2,00.0,31.2,24.3,13.9,-002.0,0007.57,0014.24,0006.94
2023-03-03 03:12:00,,0815.6,4.99,0.00,22.5,21.1,00.0,31.2,24.3,13.8,-001.5,0007.58,0014.67,0006.94
2023-03-03 03:13:00,,0815.6,4.97,0.00,22.5,21.1,00.0,31.2,24.3,13.8,-001.3,0007.59,0015.36,0006.94
2023-03-03 03:14:00,,0815.7,4.99,0.00,22.5,21.1,00.0,31.2,24.3,13.8,-001.2,0007.58,0015.29,0006.93
2023-03-03 03:15:00,,0815.6,5.01,0.00,22.5,21.0,00.0,31.2,24.2,13.8,-000.8,0007.59,0015.43,0006.94
2023-03-03 03:16:00,,0815.6,5.00,0.00,22.5,21.0,00.0,31.2,24.2,13.9,-000.9,0007.63,0015.58,0006.93
2023-03-03 03:17:00,,0815.6,5.00,0.00,22.5,20.9,00.0,31.2,24.2,14.0,-000.8,0007.62,0016.23,0006.94
2023-03-03 03:18:00,,0815.9,4.99,0.00,22.5,20.9,00.0,31.2,24.2,14.0,-000.8,0007.63,0015.78,0006.94
2023-03-03 03:19:00,,0816.0,5.01,0.00,22.4,20.8,00.0,31.2,24.2,14.0,-001.0,0007.64,0015.29,0006.95
2023-03-03 03:20:00,,0816.0,5.01,0.00,22.4,20.8,00.0,31.2,24.1,14.0,-001.1,0007.64,0015.63,0006.95
2023-03-03 03:21:00,,0816.1,5.01,0.00,22.4,20.8,00.0,31.2,24.1,14.0,-001.4,0007.66,0015.75,0006.96
2023-03-03 03:22:00,,0816.0,5.00,0.00,22.4,20.7,00.0,31.2,24.1,13.9,-001.6,0007.62,0015.71,0006.95
2023-03-03 03:23:00,,0816.0,4.99,0.00,22.4,20.7,00.0,31.2,24.1,13.8,-001.7,0007.58,0015.40,0006.93
2023-03-03 03:24:00,,0815.9,4.97,0.00,22.4,20.7,00.0,31.2,24.1,13.8,-001.7,0007.53,0015.11,0006.91
2023-03-03 03:25:00,,0815.9,4.99,0.00,22.4,20.7,00.0,31.2,24.1,13.8,-001.8,0007.53,0014.96,0006.89
2023-03-03 03:26:00,,0815.5,5.00,0.00,22.4,20.7,00.0,31.2,24.1,13.9,-002.2,0007.45,0014.78,0006.85
2023-03-03 03:27:00,,0815.5,5.00,0.00,22.3,20.6,00.0,31.2,24.0,13.9,-002.4,0007.34,0014.41,0006.80
2023-03-03 03:28:00,,0815.4,5.00,0.00,22.3,20.6,00.0,31.1,24.0,13.8,-002.5,0007.29,0013.58,0006.76
2023-03-03 03:29:00,,0815.3,5.00,0.00,22.3,20.6,00.0,31.1,24.0,13.8,-002.6,0007.23,0013.50,0006.71
2023-03-03 03:30:00,,0815.4,4.99,0.00,22.3,20.5,00.0,31.1,24.0,13.6,-002.5,0007.13,0012.76,0006.65
2023-03-03 03:31:00,,0815.4,4.98,0.00,22.3,20.5,00.0,31.1,24.0,13.4,-002.2,0007.06,0012.38,0006.59
2023-03-03 03:32:00,,0815.3,5.00,0.00,22.3,20.6,00.0,31.1,23.9,13.3,-002.0,0007.03,0012.31,0006.52
2023-03-03 03:33:00,,0815.3,5.00,0.00,22.3,20.5,00.0,31.1,23.9,13.5,-001.8,0006.95,0012.24,0006.47
2023-03-03 03:34:00,,0815.2,5.01,0.00,22.2,20.5,00.0,31.1,23.9,13.5,-001.4,0006.95,0012.05,0006.43
2023-03-03 03:35:00,,0815.5,5.00,0.00,22.2,20.5,00.0,31.1,23.9,13.4,-001.3,0006.95,0011.87,0006.41
2023-03-03 03:36:00,,0815.3,4.99,0.00,22.2,20.5,00.0,31.1,23.9,13.5,-001.4,0006.90,0011.81,0006.39
2023-03-03 03:37:00,,0815.1,5.01,0.00,22.2,20.4,00.0,31.0,23.9,13.5,-001.2,0006.89,0011.76,0006.38
2023-03-03 03:38:00,,0815.1,5.01,0.00,22.2,20.5,00.0,31.0,23.9,13.6,-000.9,0006.88,0011.75,0006.36
2023-03-03 03:39:00,,0815.2,5.00,0.00,22.2,20.5,00.0,31.0,23.9,13.6,-000.6,0006.87,0011.74,0006.35
2023-03-03 03:40:00,,0815.2,5.00,0.00,22.2,20.4,00.0,31.0,23.8,13.6,0000.0,0006.84,0011.71,0006.33
2023-03-03 03:41:00,,0815.0,5.01,0.00,22.2,20.4,00.0,31.0,23.8,13.5,0000.1,0006.86,0011.79,0006.33
2023-03-03 03:42:00,,0815.1,4.98,0.00,22.1,20.4,00.0,31.0,23.8,13.4,-000.5,0006.83,0011.72,0006.32
2023-03-03 03:43:00,,0815.1,5.00,0.00,22.2,20.7,00.0,31.0,23.9,13.5,-001.0,0006.85,0011.84,0006.34
2023-03-03 03:44:00,,0815.1,5.01,0.00,22.2,21.6,00.0,31.0,24.1,13.5,-001.1,0006.88,0011.77,0006.35
2023-03-03 03:45:00,,0815.2,5.01,0.00,22.4,22.7,00.0,31.0,24.4,13.4,-001.4,0006.87,0011.67,0006.33
2023-03-03 03:46:00,,0815.2,5.00,0.00,22.4,22.7,00.0,31.0,24.4,13.4,-001.4,0006.86,0011.37,0006.34
2023-03-03 03:47:00,,0815.2,5.00,0.00,22.5,22.3,00.0,31.0,24.4,13.4,-001.4,0006.86,0011.29,0006.34
2023-03-03 03:48:00,,0815.2,4.99,0.00,22.5,22.0,00.0,31.1,24.3,13.4,-001.8,0006.87,0011.35,0006.33
2023-03-03 03:49:00,,0815.1,5.00,0.00,22.5,21.7,00.0,31.1,24.2,13.5,-002.0,0006.92,0011.43,0006.34
2023-03-03 03:50:00,,0815.1,5.00,0.00,22.5,21.5,00.0,31.1,24.2,13.5,-002.2,0006.93,0011.45,0006.34
2023-03-03 03:51:00,,0815.2,4.97,0.00,22.5,21.3,00.0,31.1,24.2,13.6,-002.6,0006.95,0011.48,0006.35
2023-03-03 03:52:00,,0815.5,5.01,0.00,22.4,21.2,00.0,31.1,24.2,13.6,-002.7,0006.95,0012.07,0006.35
2023-03-03 03:53:00,,0815.3,5.00,0.00,22.5,21.1,00.0,31.1,24.2,13.6,-002.9,0007.05,0012.59,0006.37
2023-03-03 03:54:00,,0815.2,4.99,0.00,22.4,21.1,00.0,31.1,24.2,13.6,-002.5,0007.07,0013.28,0006.38
2023-03-03 03:55:00,,0815.3,5.00,0.00,22.4,21.0,00.0,31.1,24.2,13.6,-002.6,0007.09,0014.13,0006.37
2023-03-03 03:56:00,,0815.2,5.00,0.00,22.4,21.0,00.0,31.2,24.2,13.6,-002.5,0007.11,0014.56,0006.39
2023-03-03 03:57:00,,0815.2,5.02,0.00,22.4,20.9,00.0,31.1,24.2,13.6,-002.6,0007.11,0015.63,0006.40
2023-03-03 03:58:00,,0815.3,5.01,0.00,22.4,20.8,00.0,31.2,24.2,13.6,-002.7,0007.15,0016.17,0006.41
2023-03-03 03:59:00,,0815.2,5.00,0.00,22.4,20.8,00.0,31.1,24.1,13.6,-002.5,0007.18,0017.12,0006.41
